Tracking 23762 objects as of 19-Oct-2021
HD Live streaming from Space Station
objects crossing your sky now

LEMUR 2 ORZULAK

Track LEMUR 2 ORZULAK now!
10-day predictions
LEMUR 2 ORZULAK is classified as:


NORAD ID: 43731
Int'l Code: 2018-096N
Perigee: 461.9 km
Apogee: 486.7 km
Inclination: 97.4 °
Period: 93.9 minutes
Semi major axis: 6845 km
RCS: Unknown
Launch date: November 29, 2018
Source: United States (US)
Launch site: SRIHARIKOTA (SRI)
aabbcc
Your satellite tracking list
Your tracking list is empty




NASA's NSSDC Master Catalog

Two Line Element Set (TLE):
1 43731U 18096N   21291.75967285  .00010972  00000-0  34581-3 0  9999
2 43731  97.3851  11.0891 0018151 187.8877 172.2083 15.32906770161130
Source of the keplerian elements: AFSPC